Skip Page Navigation
NASA JPL Caltech
NASA Logo - Jet Propulsion Laboratory + View the NASA Portal
+ Center for Near-Earth Object Studies
JPL Home Earth Solar System Stars & Galaxies Technology
JPL Solar System Dynamics
BODIES ORBITS EPHEMERIDES TOOLS PHYSICAL DATA DISCOVERY FAQ SITE MAP
IMPORTANT: The SSD Announcement email list is now available. Major changes are coming in the near future, including possible hostname and/or URL changes. To be notified of such changes, subscribe to this email list.

Please visit this page for more details.


JPL Small-Body Database Browser
Search: [ help ]  
193521 (2000 YG63)
Classification: Main-belt Asteroid          SPK-ID: 2193521
Ephemeris | Orbit Diagram | Orbital Elements | Mission Design | Physical Parameters | Discovery Circumstances | Close-Approach Data ]

[ show orbit diagram ]
Orbital Elements at Epoch 2458600.5 (2019-Apr-27.0) TDB
Reference: JPL 15 (heliocentric ecliptic J2000)
 Element Value Uncertainty (1-sigma)   Units 
e .09589217966463146 4.5456e-08  
a 2.689811849062048 2.0052e-08 au
q 2.431879927967735 1.2712e-07 au
i 14.87735531968485 4.7387e-06 deg
node 114.9450419939351 2.7232e-05 deg
peri 4.443351845567939 5.2338e-05 deg
M 52.96235076430432 4.4314e-05 deg
tp 2458363.446684998298
(2018-Sep-01.94668500)
0.00019707 TDB
period 1611.318081034457
4.41
1.8018e-05
4.933e-08
d
yr
n .2234195744696677 2.4983e-09 deg/d
Q 2.94774377015636 2.1974e-08 au
  Orbit Determination Parameters
   # obs. used (total)      450  
   data-arc span      6736 days (18.44 yr)  
   first obs. used      2000-11-27  
   last obs. used      2019-05-08  
   planetary ephem.      DE431  
   SB-pert. ephem.      SB431-N16  
   condition code      0  
   norm. resid. RMS      .59775  
   source      ORB  
   producer      Otto Matic  
   solution date      2019-May-30 08:11:17  

Additional Information
 Earth MOID = 1.4486 au 
 Jupiter MOID = 2.14859 au 
 T_jup = 3.318 
[ show covariance matrix ]

Ephemeris | Orbit Diagram | Orbital Elements | Mission Design | Physical Parameters | Discovery Circumstances | Close-Approach Data ]

Physical Parameter Table
Parameter Symbol Value Units Sigma Reference Notes
absolute magnitude H 15.5   n/a MPO338472  
diameter diameter 2.528 km 0.350 urn:nasa:pds:neowise_diameters_albedos::2.0[mainbelt] (http://adsabs.harvard.edu/abs/2011ApJ...741...68M)  
geometric albedo albedo 0.210   0.109 urn:nasa:pds:neowise_diameters_albedos::2.0[mainbelt] (http://adsabs.harvard.edu/abs/2011ApJ...741...68M)  

193521 (2000 YG63)          Discovered 2000-Dec-30 by LINEAR at Socorro
Reference: 20081113/Numbers.arcLast Updated: 2008-11-17

[ show close-approach data ]
Ephemeris | Orbit Diagram | Orbital Elements | Mission Design | Physical Parameters | Discovery Circumstances | Close-Approach Data ]
ABOUT SSD CREDITS/AWARDS PRIVACY/COPYRIGHT GLOSSARY LINKS
FirstGov 2019-Oct-19 16:05 UT
(server date/time)  
NASA Home Page
Site Manager:   Ryan S. Park
Webmaster  Alan B. Chamberlin